Location: Košťálov
(50.5717°N, 15.4040°E)
Time: 21:54:46
(UTC+02:00)

ISS - Visible Passes

Search period start: 17 July 2024 00:00
Search period end: 27 July 2024 00:00
Orbit: 409 x 424 km, 51.6° (Epoch: 17 July)

Date Brightness Start Highest point End Pass type
(mag) Time Alt. Az. Time Alt. Az. Time Alt. Az.
17 Jul -3.0 00:40:37 10° W 00:43:06 37° WSW 00:43:06 37° WSW visible
17 Jul -3.5 22:15:27 10° W 22:18:46 71° N 22:22:05 10° E visible
17 Jul -3.8 23:52:15 10° WNW 23:55:32 60° SSW 23:56:06 50° SSE visible
18 Jul -3.9 23:03:53 10° WNW 23:07:12 79° SSW 23:09:08 23° ESE visible
19 Jul -1.6 00:40:57 10° W 00:42:00 16° WSW 00:42:00 16° WSW visible
19 Jul -3.8 22:15:29 10° WNW 22:18:49 85° NNE 22:22:08 10° ESE visible
19 Jul -2.8 23:52:21 10° W 23:55:03 31° SW 23:55:03 31° SW visible
20 Jul -3.4 23:03:51 10° W 23:07:02 45° SSW 23:08:08 32° SSE visible
21 Jul -3.7 22:15:21 10° WNW 22:18:38 63° SSW 22:21:13 15° ESE visible
21 Jul -1.6 23:52:46 10° W 23:54:05 15° WSW 23:54:05 15° WSW visible
22 Jul -2.4 23:03:53 10° W 23:06:36 24° SW 23:07:10 22° SSW visible
23 Jul -2.8 22:15:10 10° W 22:18:12 34° SSW 22:20:16 17° SSE visible
24 Jul -3.3 21:26:32 10° W 21:29:45 48° SSW 21:32:56 10° SE visible
24 Jul -1.3 23:04:43 10° WSW 23:05:51 11° SW 23:06:15 11° SW visible
25 Jul -1.7 22:15:14 10° W 22:17:29 17° SW 22:19:23 12° S visible
